Temperature
13 13 13 13 13 13 13 13 12 12 12 12 11 11 11 11 11 11 11 11 11 11 11 11 11 11 11 11 11 11 11 11 11 11 11 11 11 11
13 13 13 13 13 13 13 13 12 12 12 12 11 11 11 11 11 11 11 11 11 11 11 11 11 11 11 11 11 11 11 11 11 11 11 10 11 11
13 13 13 13 13 13 13 12 12 12 12 12 11 11 11 11 11 11 11 11 11 11 11 11 11 11 11 11 11 11 11 11 10 10 10 10 10 10
13 13 13 13 13 12 12 12 12 12 12 11 11 11 11 11 10 10 10 10 10 10 10 10 10 10 10 10 10 10 10 10 10 10 10 10 10 10
13 13 13 12 12 12 12 12 12 12 11 11 11 11 10 10 10 10 10 10 10 10 10 10 10 10 10 10 10 10 10 10 10 10 10 10 10 10
13 12 12 12 12 12 12 12 12 11 11 11 11 10 10 10 10 10 10 10 10 10 10 10 10 10 10 10 10 10 10 10 9 9 9 9 9 9
12 12 12 12 12 12 12 11 11 11 11 11 10 10 10 10 10 10 10 9 9 9 10 10 10 10 10 10 10 9 9 9 9 9 9 9 9 9
12 12 12 12 12 12 11 11 11 11 11 10 10 10 10 10 9 9 9 9 9 9 9 9 9 9 9 9 9 9 9 9 9 9 9 9 9 9
12 12 11 11 11 11 11 11 11 10 10 10 10 10 10 10 9 9 9 9 9 9 9 9 9 9 9 9 9 9 9 9 9 9 9 9 9 9
11 11 11 11 11 11 11 11 10 10 10 10 10 10 9 9 9 9 9 9 9 9 9 9 9 9 9 9 9 9 9 8 8 8 8 8 8 8
11 11 11 11 11 11 10 10 10 10 10 9 9 9 9 9 9 9 9 9 8 8 8 8 8 8 8 8 8 8 8 8 8 8 8 8 8 8
10 10 10 10 10 10 10 10 10 10 10 9 9 9 9 9 9 9 8 8 8 8 8 8 8 8 8 8 8 8 8 8 8 8 8 8 8 8
10 10 10 10 10 10 10 10 10 9 9 9 9 9 8 8 8 8 8 8 8 8 8 8 7 7 7 7 7 7 7 7 7 7 7 7 7 7
9 9 9 9 9 9 9 9 9 9 9 8 8 8 8 8 8 8 8 8 8 8 7 7 7 7 7 7 7 7 7 7 7 7 7 7 7 6
9 9 9 9 9 9 9 9 8 8 8 8 8 8 8 8 8 7 7 7 7 7 7 7 7 7 6 6 6 6 6 6 6 6 6 6 6 6
9 8 8 8 8 8 8 8 8 8 8 8 8 7 7 7 7 7 7 7 7 7 7 6 6 6 6 6 6 6 6 6 6 6 6 6 6 6
8 8 8 8 8 8 8 8 7 7 7 7 7 7 7 6 6 6 6 6 6 6 6 6 6 6 6 6 6 6 6 5 5 5 5 5 5 5
7 7 7 7 7 7 7 7 7 7 7 7 7 6 6 6 6 6 6 6 6 6 6 5 5 5 5 5 5 5 5 5 5 5 5 5 5 5
7 7 7 7 7 7 7 7 7 7 7 6 6 6 6 6 6 5 5 5 5 5 5 5 5 5 5 5 5 5 5 5 5 5 4 4 4 4
7 7 7 6 6 6 6 6 6 6 6 6 6 6 5 5 5 5 5 5 5 5 5 5 5 5 5 5 5 5 5 4 4 4 4 4 4 4
6 6 6 6 6 6 6 6 6 6 6 5 5 5 5 5 5 5 5 5 4 4 4 4 5 5 4 4 4 4 4 4 4 4 4 4 4 4
6 6 6 6 5 5 5 5 5 5 5 5 5 5 5 5 4 4 4 4 4 4 4 4 4 4 4 4 4 4 4 4 3 3 3 3 3 3
5 5 5 5 5 5 5 5 5 5 5 4 4 4 4 4 4 4 4 4 4 3 3 3 3 3 3 3 3 3 3 3 3 3 3 3 3 3
Wind_Speed
2 2 1 1 0 0 1 2 2 1 1 1 0 1 3 4 3 3 3 2 2 2 2 2 3 3 4 5 5 4 4 5 5 5 6 6 7 7
1 1 1 0 1 1 1 1 1 2 1 1 1 1 2 2 2 2 3 2 2 2 2 1 1 2 3 4 4 4 4 5 5 6 6 7 7 8
2 2 2 1 1 1 0 0 0 1 1 1 0 1 1 1 1 2 4 4 3 3 3 2 0 1 2 3 4 4 4 5 6 6 6 7 7 8
2 2 2 1 1 1 1 1 1 2 2 2 1 0 1 1 2 1 2 2 3 4 4 4 3 2 1 2 3 3 4 5 5 6 6 6 7 7
1 2 2 2 1 1 1 1 1 1 2 2 1 0 0 0 1 0 1 1 2 4 5 5 5 4 3 2 3 3 3 4 5 6 6 6 7 7
1 1 2 2 2 1 1 1 0 0 1 1 1 1 1 1 1 1 1 1 2 1 2 3 5 4 4 3 3 2 2 3 4 5 6 6 6 7
1 1 1 2 2 1 1 1 1 1 1 1 2 1 1 1 1 1 1 2 2 1 1 2 2 3 3 4 3 3 3 3 4 5 5 5 6 7
1 1 1 2 1 2 1 1 1 2 2 2 2 2 2 2 1 1 1 1 2 1 1 2 1 2 2 2 3 4 4 3 3 4 5 5 6 6
1 1 1 1 2 2 1 1 0 0 2 2 1 2 2 2 1 2 2 2 2 2 1 2 1 1 2 3 4 4 4 4 4 4 5 5 6 6
1 2 2 2 2 2 2 1 1 1 0 0 1 1 1 2 2 2 3 2 1 1 1 1 1 1 1 2 3 3 3 4 4 4 5 5 6 6
1 1 1 2 2 2 2 2 1 1 1 1 1 1 1 1 1 1 0 0 1 2 1 1 1 1 1 2 2 3 3 5 5 5 5 5 6 6
1 1 1 1 1 3 3 3 3 2 1 1 0 1 1 1 1 2 2 1 1 2 1 0 1 1 1 2 1 2 3 4 5 6 6 7 6 4
2 1 1 1 1 3 3 3 3 2 3 2 2 1 1 1 1 1 1 2 2 2 2 1 1 1 1 2 2 2 2 2 3 4 5 5 4 2
2 1 1 2 2 2 3 2 1 1 1 1 1 1 1 1 1 1 1 1 2 3 3 2 2 2 1 2 3 2 2 2 2 2 2 2 3 3
2 2 2 2 2 2 3 3 2 2 2 2 2 3 2 2 1 1 1 1 2 3 3 2 1 2 2 2 3 2 2 3 2 1 1 1 0 1
1 1 2 2 2 3 3 3 3 2 3 3 3 2 2 1 1 1 1 1 1 2 3 3 2 2 2 3 3 3 3 2 2 1 1 1 1 1
1 1 1 1 2 2 2 2 2 2 2 2 2 2 2 2 2 1 1 1 2 2 2 1 1 1 2 2 2 3 3 2 2 1 2 2 2 1
2 2 3 3 4 3 3 3 3 3 3 3 3 3 3 3 2 2 1 2 2 2 2 1 0 1 2 2 3 3 2 2 2 2 1 2 3 3
3 4 4 4 4 3 3 3 4 4 3 3 3 3 3 3 3 3 2 2 3 3 2 2 1 1 2 4 3 3 2 3 2 2 3 3 3 4
4 5 5 4 4 4 4 4 3 3 3 3 3 3 3 3 3 3 3 3 3 3 3 2 3 4 5 4 3 3 5 3 2 3 3 3 3 3
4 4 4 4 4 4 4 4 4 4 4 4 4 4 4 4 4 4 4 5 4 4 4 5 5 5 2 1 2 3 3 4 4 2 2 2 3 2
4 4 4 4 4 4 4 4 4 4 4 4 4 4 4 4 4 4 4 4 5 5 5 3 3 2 2 3 4 4 3 3 3 3 3 2 2 2
4 4 4 4 3 3 4 4 5 4 4 4 4 4 4 4 4 4 4 4 4 4 3 2 2 2 3 3 3 3 3 3 2 2 3 4 5 5
Wind_Direction
170 175 176 210 132 127 132 139 147 223 268 224 163 154 122 133 144 147 141 142 134 121 76 41 27 21 18 16 7 8 10 7 4 2 359 356 355 352
149 168 160 166 148 113 134 158 155 171 234 243 219 187 148 139 175 174 169 164 159 165 144 100 29 16 12 7 7 5 3 359 353 353 355 354 353 352
178 180 178 163 149 178 165 153 196 153 196 275 254 168 134 131 148 184 179 166 170 189 177 181 234 336 354 2 6 1 353 347 345 347 345 347 349 350
201 176 182 176 173 196 182 205 217 191 183 216 254 232 202 187 187 210 177 185 187 201 199 207 221 238 286 324 340 341 343 349 348 344 341 342 343 344
183 159 171 153 182 207 211 220 234 224 180 177 225 246 235 227 130 258 257 233 218 207 208 218 222 232 242 265 297 311 326 344 349 346 342 341 341 341
190 186 179 160 167 162 207 215 232 208 157 146 178 222 243 242 128 222 273 275 268 222 217 226 222 236 237 254 276 294 315 332 338 335 331 334 337 338
171 188 131 109 92 166 203 198 175 191 178 166 189 210 228 224 227 236 250 262 264 225 210 228 209 217 236 249 251 261 284 303 317 324 325 328 330 331
183 162 145 136 128 112 119 133 169 185 192 190 205 206 224 218 209 259 250 262 278 264 198 254 190 221 213 208 239 251 259 277 300 317 323 325 327 328
192 175 217 193 143 159 162 144 145 183 176 178 191 222 220 232 203 234 263 259 249 247 195 251 234 234 225 237 242 247 248 259 280 299 312 319 323 325
223 200 188 179 195 149 158 158 143 47 64 157 180 200 191 183 199 215 234 250 265 293 102 230 260 264 257 228 241 231 248 261 273 284 294 306 314 321
232 242 226 185 198 154 153 176 182 276 23 89 85 88 121 114 117 95 36 51 281 281 275 174 270 294 268 250 237 233 263 270 269 274 283 297 309 316
238 224 267 276 216 174 177 185 199 213 198 213 211 228 212 157 123 143 170 192 254 277 279 134 274 350 314 274 224 246 260 274 282 282 281 283 295 303
250 245 258 289 238 195 185 189 214 202 189 189 201 213 226 209 194 196 177 181 206 252 259 184 256 278 238 279 281 251 232 257 281 289 283 284 292 282
246 238 235 250 256 229 214 213 195 162 166 179 193 208 213 218 227 230 229 220 221 233 249 219 214 221 240 278 281 278 269 262 262 263 256 313 326 314
246 247 231 238 252 243 227 231 214 190 184 192 211 225 223 213 199 232 265 263 267 273 267 257 209 203 202 239 260 269 284 278 250 241 236 254 291 340
274 287 260 238 227 234 239 234 228 216 199 206 212 219 216 195 195 207 236 245 279 292 289 275 252 208 234 252 249 263 262 264 284 286 293 273 262 257
239 236 228 217 220 228 224 224 224 224 227 222 212 210 205 203 215 222 225 233 239 247 268 299 304 264 233 232 255 264 267 271 272 270 302 299 284 256
217 220 222 218 218 225 228 227 224 223 222 221 224 218 211 211 221 239 244 234 239 242 239 242 248 348 339 308 245 242 256 264 271 268 277 278 286 281
213 225 225 223 221 223 229 228 231 233 225 219 224 230 224 218 221 231 234 240 243 248 251 237 220 205 256 284 283 257 250 267 265 262 260 260 271 279
224 225 226 224 221 222 225 229 232 234 230 226 228 232 225 223 227 226 228 235 239 247 253 246 232 223 227 247 265 282 260 249 247 260 266 274 275 282
236 235 232 229 227 224 225 222 221 226 229 226 226 227 227 226 231 230 228 237 235 234 241 244 244 248 239 233 283 282 281 266 256 254 260 271 283 281
239 236 237 237 234 228 227 225 225 227 229 231 232 230 228 229 235 234 234 238 235 233 242 251 250 242 231 230 250 264 279 296 291 293 291 265 244 244
241 237 234 233 236 234 229 228 229 230 228 229 230 234 232 233 236 235 238 239 240 235 236 245 250 244 237 232 244 258 267 283 291 290 290 300 283 273
Height
1532 1532 1532 1533 1533 1533 1533 1533 1533 1532 1532 1531 1531 1531 1530 1529 1528 1527 1526 1525 1524 1523 1523 1522 1522 1521 1521 1521 1520 1520 1520 1519 1519 1518 1518 1517 1516 1516
1530 1530 1531 1531 1531 1531 1531 1531 1532 1531 1530 1530 1529 1529 1528 1527 1527 1526 1525 1524 1523 1522 1522 1521 1521 1521 1520 1519 1519 1518 1518 1518 1517 1517 1516 1515 1515 1514
1528 1528 1529 1529 1529 1529 1529 1529 1529 1529 1528 1528 1528 1528 1527 1526 1525 1524 1524 1523 1522 1521 1521 1520 1520 1519 1519 1518 1518 1517 1517 1517 1516 1515 1515 1514 1513 1512
1526 1526 1526 1526 1527 1527 1527 1527 1527 1527 1526 1526 1526 1526 1525 1525 1524 1523 1522 1521 1521 1520 1520 1519 1518 1518 1518 1517 1517 1516 1516 1515 1514 1514 1513 1512 1512 1511
1523 1523 1523 1524 1524 1524 1524 1524 1524 1524 1524 1524 1523 1523 1523 1523 1522 1521 1521 1520 1519 1519 1518 1517 1516 1516 1516 1516 1515 1515 1514 1514 1513 1512 1511 1510 1510 1509
1521 1521 1521 1521 1521 1521 1521 1521 1521 1521 1521 1521 1521 1521 1521 1520 1520 1519 1518 1518 1518 1517 1516 1516 1515 1515 1515 1514 1514 1513 1513 1512 1511 1510 1509 1509 1508 1507
1517 1518 1518 1518 1519 1519 1518 1518 1518 1518 1518 1518 1518 1518 1518 1518 1517 1517 1516 1516 1516 1515 1515 1514 1514 1513 1513 1513 1512 1512 1511 1510 1509 1508 1507 1507 1506 1505
1514 1514 1515 1515 1515 1515 1515 1515 1516 1516 1515 1515 1515 1515 1515 1515 1515 1515 1514 1514 1513 1514 1513 1512 1512 1511 1511 1511 1510 1510 1509 1508 1507 1507 1506 1504 1504 1503
1511 1511 1512 1512 1512 1512 1512 1513 1513 1513 1513 1513 1513 1512 1512 1512 1512 1512 1512 1511 1511 1511 1511 1509 1510 1509 1509 1508 1508 1508 1507 1506 1505 1504 1504 1502 1501 1500
1507 1508 1508 1509 1508 1509 1509 1509 1509 1509 1510 1510 1510 1510 1510 1510 1510 1510 1509 1509 1508 1508 1508 1507 1507 1506 1506 1506 1506 1505 1504 1503 1503 1502 1501 1500 1499 1498
1504 1505 1505 1505 1505 1505 1505 1505 1506 1506 1506 1506 1507 1507 1507 1507 1507 1506 1506 1506 1505 1504 1505 1505 1504 1503 1503 1503 1503 1502 1502 1501 1500 1499 1498 1497 1496 1495
1500 1501 1501 1502 1502 1502 1502 1502 1502 1502 1502 1503 1503 1503 1503 1503 1503 1503 1503 1502 1502 1501 1502 1502 1501 1501 1500 1500 1500 1499 1499 1498 1497 1496 1495 1494 1493 1492
1496 1496 1497 1498 1498 1499 1499 1499 1499 1499 1499 1499 1499 1499 1499 1499 1499 1499 1500 1500 1499 1499 1499 1499 1498 1498 1498 1496 1496 1496 1495 1495 1494 1493 1492 1491 1490 1489
1492 1493 1493 1494 1495 1495 1495 1495 1496 1496 1495 1495 1495 1495 1495 1495 1496 1496 1496 1496 1496 1496 1496 1496 1495 1495 1494 1493 1493 1492 1492 1491 1491 1490 1489 1488 1487 1486
1488 1489 1490 1490 1491 1491 1491 1492 1492 1492 1492 1492 1492 1492 1492 1492 1492 1493 1493 1493 1493 1492 1492 1492 1492 1491 1491 1490 1489 1489 1488 1488 1487 1486 1485 1484 1483 1482
1484 1485 1486 1486 1486 1487 1487 1487 1488 1488 1488 1488 1488 1489 1489 1489 1489 1489 1489 1488 1488 1488 1488 1488 1488 1488 1487 1487 1486 1485 1485 1484 1484 1483 1482 1481 1480 1479
1480 1481 1481 1481 1481 1482 1482 1483 1484 1484 1484 1484 1485 1485 1485 1485 1485 1485 1485 1485 1484 1484 1484 1484 1484 1484 1484 1483 1482 1482 1481 1481 1480 1479 1478 1477 1476 1475
1476 1476 1476 1476 1477 1477 1478 1478 1479 1479 1480 1480 1480 1481 1481 1481 1481 1482 1481 1481 1480 1480 1480 1480 1480 1479 1479 1479 1479 1478 1478 1477 1476 1476 1474 1473 1472 1472
1471 1471 1472 1472 1472 1473 1473 1474 1474 1475 1475 1475 1476 1476 1477 1477 1477 1477 1477 1477 1477 1476 1476 1476 1476 1475 1474 1473 1474 1475 1474 1473 1472 1471 1470 1470 1468 1467
1466 1466 1467 1467 1468 1468 1469 1469 1469 1470 1471 1471 1471 1471 1472 1472 1472 1472 1472 1473 1473 1473 1472 1472 1472 1471 1471 1471 1470 1470 1471 1469 1468 1467 1466 1465 1464 1464
1461 1461 1462 1462 1463 1463 1464 1464 1465 1465 1466 1466 1466 1466 1467 1467 1467 1468 1468 1468 1468 1468 1467 1467 1467 1468 1468 1468 1467 1465 1466 1466 1465 1463 1462 1461 1460 1458
1457 1457 1457 1458 1458 1458 1459 1459 1460 1460 1461 1461 1461 1461 1462 1462 1462 1463 1463 1463 1463 1463 1463 1463 1464 1463 1463 1462 1461 1461 1461 1461 1460 1460 1459 1458 1456 1454
1452 1452 1452 1452 1453 1453 1453 1454 1454 1455 1455 1455 1456 1456 1456 1456 1457 1457 1457 1458 1458 1458 1458 1458 1459 1459 1458 1458 1458 1457 1457 1456 1455 1454 1454 1454 1454 1453